Regional Weather Roundup
Issued by NWS

Home | Current Version | Previous Version | Text Only | Print | Product List | Glossary Off
Versions: 1 2 3 4 5 6 7 8 9 10 11 12 13 14 15 16 17 18 19 20 21 22 23 24 25 26 27 28 29 30 31 32 33 34 35 36 37 38 39 40 41 42 43 44 45 46 47 48 49 50

576
ASUS43 KLMK 172102
RWRKY
KENTUCKY REGIONAL WEATHER ROUNDUP
NATIONAL WEATHER SERVICE LOUISVILLE KY
500 PM EDT THU AUG 17 2017

NOTE "FAIR" INDICATES FEW OR NO CLOUDS BELOW 12,000 FEET
WITH NO SIGNIFICANT WEATHER AND/OR OBSTRUCTIONS TO VISIBILITY.

KYZ001>023-026-027-061>063-070>075-172200-
WESTERN AND SOUTH CENTRAL KENTUCKY

CITY           SKY/WX    TMP DP  RH WIND       PRES   REMARKS
PADUCAH        MOSUNNY   85  72  65 SW10      29.89S HX  91
HENDERSON      CLOUDY    85  73  67 SW8       29.87F HX  91
OWENSBORO      TSTM      77  75  93 W13       29.89R
HOPKINSVILLE   CLOUDY    85  75  71 SW18      29.91S HX  94
BOWLING GREEN  CLOUDY    88  73  61 SW13      29.92F HX  95
GLASGOW        CLOUDY    86  71  61 W13       29.93S HX  91
$$

KYZ024-025-028>034-038-045-046-053-172200-
NORTH CENTRAL KENTUCKY

CITY           SKY/WX    TMP DP  RH WIND       PRES   REMARKS
LOUISVILLE/SDF PTSUNNY   85  77  77 W12       29.85F HX  95
LOUISVILLE/LOU MOSUNNY   84  79  85 W7        29.86F HX  96
FORT KNOX      MOSUNNY   88  72  59 S16G23    29.86F HX  94
$$

KYZ035>037-039>044-047>052-055>060-089>105-172200-
NORTHEAST KENTUCKY

CITY           SKY/WX    TMP DP  RH WIND       PRES   REMARKS
LEXINGTON      MOSUNNY   89  70  53 SW17G24   29.90F HX  94
COVINGTON      CLOUDY    76  75  97 S7        29.87F
FRANKFORT      MOSUNNY   89  70  53 SW18      29.87F HX  94
$$

KYZ054-064>069-076>088-106>120-172200-
SOUTHEAST KENTUCKY

CITY           SKY/WX    TMP DP  RH WIND       PRES   REMARKS
JACKSON        MOSUNNY   86  73  65 CALM      29.95F HX  93
LONDON         MOSUNNY   89  69  51 SW9       29.96F HX  93
SOMERSET       NOT AVBL
MIDDLESBORO    MOSUNNY   86  73  63 S9        29.98S HX  93
MONTICELLO     PTCLDY    89  73  59 SW14G21   29.96F HX  97
$$





USA.gov is the U.S. government's official web portal to all federal, state and local government web resources and services.